Weather in Chyonki

Belarus     52°21′05″N   30°58′52″E
temp.,
°C
wind,
m/s
gust,
m/s
humid.,
%
clouds,
%
prec.,
mm/h
press.,
hPa
HPBL,
m
13 april, tue
tue1300:00+9n1191100 0.0 102110
03:00+9n119272 0.0 102011
06:00+8ne1193100 0.0 102011
09:00+9ese1393100 0.0 102097
12:00+10sse2594100 0.3 1020283
15:00+12s3580100 0.5 1020580
18:00+14se3572100 0.1 1018399
21:00+10se3788100 0.1 1018208
14 april, wed
wed1400:00+10sse2590100 0.0 1017127
03:00+9se259354 0.0 1017120
06:00+9se2693100 0.0 1016157
09:00+10sse3785100 0.0 1016429
12:00+13sse466772 0.0 1016985
15:00+14s4560100 0.2 10151203
18:00+13se246574 0.2 1014726
21:00+11ese238098 0.5 101580
15 april, thu
thu1500:00+8ese228799 0.1 101519
03:00+8e118897 0.1 101410
06:00+8ene229292 0.1 101432
09:00+11ene247985 0.3 1014258
12:00+15ese245734 0.9 10131124
15:00+17ese234497 1.0 10122101
18:00+14ene126295 0.1 101231
21:00
16 april, fri
fri1600:00+10ene249072 0.3 101176
03:00+9ene379640 0.3 1011194
06:00+8ne389677 0.0 1011243
09:00+11e4785100 0.1 1011667
12:00+12ese3674100 0.1 1012945
15:00+12ese357095 0.5 1013722
18:00+11sse3769100 0.1 1013502
21:00+9ese227798 0.4 101655
17 april, sat
sat1700:00+7ese238861 0.0 101668
03:00+6ese228713 0.0 101735
06:00+4ese228898 0.0 101939
09:00+8e2474100 0.0 1020396
12:00+12e2359100 0.0 10201149
15:00+14ene344880 0.1 10211857
18:00+12ne566891 0.1 1022720
21:00+8ne399265 0.1 1023421